www.pogodaiklimat.ru
Время
и дата
12:51 05.10
13:51 05.10
14:51 05.10
15:51 05.10
16:51 05.10
17:00 05.10
17:34 05.10
17:38 05.10
17:51 05.10
18:01 05.10
18:11 05.10
18:19 05.10
18:26 05.10
18:41 05.10
18:51 05.10
19:06 05.10
19:14 05.10
19:24 05.10
19:36 05.10
19:48 05.10
19:51 05.10
20:11 05.10
20:20 05.10
20:33 05.10
20:51 05.10
21:51 05.10
22:08 05.10
22:14 05.10
22:24 05.10
22:51 05.10
23:04 05.10
23:12 05.10
23:29 05.10
23:40 05.10
23:46 05.10
23:51 05.10
23:58 05.10
00:51 06.10
01:04 06.10
01:21 06.10
01:51 06.10
01:54 06.10
02:03 06.10
02:11 06.10
02:24 06.10
02:31 06.10
02:51 06.10
03:02 06.10
Ветер
(напр.,м/с)
Видим. Явления Облачность Т
(С)
Тd
(С)
f
(%)
Тe
(С)
Тes
(С)
Комфортность P
(гПа)
Po
(гПа)
Тmin
(С)
Tmax
(С)
R
(мм)
R24
(мм)
S
(см)
СЗ 5 14 км ясно +22.8 +15.6 64 +27 +34 душно 1015.1 1006.2
СЗ 4 14 км ясно +19.4 +14.4 73 +21 +29 комфорт 1015.0 1005.9
З 4 10 км мгла ясно +19.4 +14.4 73 +21 +27 комфорт 1014.9 1005.6
СЗ 4 16 км ясно +17.8 +13.9 78 +18 +22 1014.8 1005.6 +17.2 +23.3
СЗ 3 13 км 2/2 240 м +15.6 +13.9 90 +15 +17 1014.9 1005.6
СЗ 3 11 км 2/2 240 м +15.6 +13.9 90 +15 +15 1005.6
СЗ 2 6 км дымка 8/8 90 м +13.9 +13.3 96 +13 +13 1005.9
СЗ 2 3 км дымка 8/8 90 м +13.9 +13.3 96 +13 +13 1005.9
СЗ 3 5 км дымка 8/8 90 м +13.9 +13.9 100 +13 +13 1015.3 1006.2
СЗ 3 3 км дымка 10/10 60 м +13.3 +13.3 100 +12 +12 1006.2
2 км дымка н/о +13.3 +13.3 100 +13 +13 1006.2
<100 м дымка н/о +13.3 +13.3 100 +13 +13 1006.2
З 2 2 км дымка 10/10 60 м +13.3 +13.3 100 +12 +12 1006.6
<100 м н/о +13.3 +13.3 100 +13 +13 1006.6
<100 м н/о 1006.6
СЗ 2 800 м туман н/о +12.8 +12.8 100 +12 +12 1006.9
СЗ 3 400 м туман н/о +12.8 +12.8 100 +11 +11 1006.9
СЗ 2 <100 м н/о +12.8 +12.8 100 +12 +12 1006.9
СЗ 2 400 м туман н/о +12.8 +12.8 100 +12 +12 1007.3
СЗ 2 800 м туман н/о +13.0 +13.0 100 +12 +12 1007.3
штиль 0 800 м туман н/о +12.8 +12.8 100 +12 +12 1016.4 1007.3
штиль 0 <100 м н/о +12.8 +12.8 100 +12 +12 1007.3
штиль 0 2 км дымка н/о +12.8 +12.8 100 +12 +12 1007.3
<100 м н/о +12.8 +12.8 100 +12 +12 1007.3
<100 м н/о 1007.6
<100 м н/о 1007.3 +12.2 +18.3
штиль 0 3 км дымка н/о +12.8 +12.8 100 +12 +12 1007.3
Ю 2 2 км дымка н/о +12.8 +12.8 100 +12 +12 1007.3
Ю 2 1 км дымка 10/10 60 м +12.8 +12.8 100 +12 +12 1006.9
штиль 0 1 км дымка ?/? +12.8 +12.8 100 +12 +12 1016.3 1007.3
400 м туман ?/? +12.8 +12.8 100 +12 +12 1007.3
<100 м н/о +12.8 +12.8 100 +12 +12 1007.3
СЗ 2 400 м туман н/о +12.8 +12.8 100 +12 +12 1007.3
З 2 2 км дымка н/о +12.8 +12.8 100 +12 +12 1007.3
СЗ 2 1 км дымка ?/? +13.0 +13.0 100 +12 +12 1007.3
штиль 0 800 м туман ?/? +12.8 +12.8 100 +12 +12 1016.5 1007.3
штиль 0 400 м туман ?/? +12.8 +12.8 100 +12 +12 1007.3
З 2 400 м туман ?/? +12.8 +12.8 100 +12 +12 1016.8 1007.6
З 2 400 м туман ?/? +12.8 +12.8 100 +12 +12 1007.6
СЗ 3 400 м туман ?/? +12.2 +12.2 100 +10 +10 1007.9
СЗ 2 400 м туман ?/? +11.7 +11.7 100 +10 +10 1017.1 1007.9
штиль 0 800 м туман ?/? +11.7 +11.7 100 +11 +11 1007.9
штиль 0 800 м туман ?/? +11.7 +11.7 100 +11 +11 1007.9
С 2 400 м туман ?/? +11.7 +11.7 100 +10 +10 1007.9
штиль 0 800 м туман ?/? +11.7 +11.7 100 +11 +11 1007.9
штиль 0 400 м туман ?/? +11.7 +11.7 100 +11 +11 1007.6
штиль 0 400 м туман ?/? +11.7 +11.7 100 +11 +11 1016.8 1007.6
штиль 0 800 м туман ?/? +12.2 +12.2 100 +11 +11 1007.6
Местоположение метеостанции Santa Maria Public Airport: широта 34.8994 долгота -120.4486 высота над уровнем моря 74 м.
В архиве по умолчанию представлена погода в Санта-Марии за последние 1-2 суток. Обновление информации о фактической погоде в базе происходит ежечасно! Архивные данные за месяц целиком и за предыдущие месяцы Вы можете получить, выбрав интересующий диапазон дат из раскрывающегося списка и нажав кнопку "Ввод!".
Внимание! Архив погоды МЕТАР в базе сайта по станциям, не включенным в климатический монитор, хранится не более 60 дней. Нет смысла пытаться выбрать более раннюю дату.
*Определитесь, кто Вы:
Внимание! Время в таблицах - местное (без учета летнего времени). Для получения всемирного времени необходимо вычесть поправку, которая равна -8 ч.
Смотрите также архив погоды в соседних городах и на ближайших метеорологических станциях:
Партнеры нашего сайта:      
Пояснения к столбцам:
  • Ветер - указаны скорость ветра в м/с - средняя за 10 мин, порывы в срок и между сроками (в фигурных скобках) и направление, откуда дует ветер: С - северный,
  • СВ - северо-восточный, В - восточный, ЮВ - юго-восточный, Ю - южный, ЮЗ - юго-западный, З - западный, СЗ - северо-западный.
  • Видимость - горизонтальная дальность видимости в метрах или километрах. При видимости от 1 до 10 км при отсутствии осадков обычно наблюдается дымка, при ухудшении видимости до 1 км и менее - туман. В сухую погоду видимость может ухудшаться дымом, пылью или мглою.
  • Явления - указаны атмосферные явления, наблюдавшиеся в срок или в последний час перед сроком; фигурными скобками обозначены явления, наблюдавшиеся между сроками (за 1-3 часа до срока); квадратными скобками обозначены град или гололедные отложения с указанием их диаметра в мм.
  • Облачность - указаны через наклонную черту общая и нижняя облачность в баллах и высота нижней границы облаков в метрах; квадратными скобками обозначены формы облаков: Ci - перистые, Cs - перисто-слоистые, Cc - перисто-кучевые, Ac - высококучевые, As - высокослоистые, Sc - слоисто-кучевые, Ns - слоисто-дождевые, Cu - кучевые, Cb - кучево-дождевые. Подробнее классификацию облаков см. в Атласе облаков (PDF).
  • T - Температура воздуха - температура, измеренная на высоте 2 м над землей.
  • Td - Температура точки росы - температура, при понижении до которой содержащийся в воздухе водяной пар достигнет насыщения.
  • f - Относительная влажность воздуха - влажноcть воздуха, измеренная на высоте 2 м над землей.
  • Te - Эффективная температура - температура, которую ощущает одетый по сезону человек в тени. Характеристика душности погоды. При расчете учитывается влияние влажности воздуха и скорости ветра на теплоощущения человека.
  • Tes - Эффективная температура на солнце - температура, которую ощущает человек, с поправкой на солнечный нагрев. Характеристика знойности погоды. Зависит от высоты солнца над горизонтом, облачности и скорости ветра. Ночью, в пасмурную погоду, а также при ветре 12 м/с и более поправка равна нулю.
  • P - Атмосферное давление - приведенное к уровню моря атмосферное давление.
  • Po - Атмосферное давление - измеренное на уровне метеостанции атмосферное давление.
  • Tmin - Минимальная температура - минимум температуры воздуха на высоте 2 м над землей.
  • Tmax - Максимальная температура - максимум температуры воздуха на высоте 2 м над землей.
  • R - Количество осадков - Количество выпавших осадков за период времени, мм. При наведении курсора мыши на число - период времени, за который выпало указанное количество осадков.
  • R24 - Количество осадков - Количество выпавших осадков за 24 часа, мм.
  • S - Снежный покров - Высота снежного покрова, см. При наведении курсора мыши на число - состояние снежного покрова и степень покрытия местности в баллах.